Location: Kuffner-Sternwarte
(48.2130°N, 16.2960°E)
Time: 02:02:35
(UTC+02:00)

COROT - Pass Details

Date: 20 January 2018
Orbit: 600 x 889 km, 90.0° (Epoch: 22 April)

Event Time Altitude Azimuth Distance (km) Brightness Sun altitude
Rises 17:31:43 0° 198° (SSW) 3,079 9.7 -9.3°
Reaches altitude 10° 17:34:12 10° 206° (SSW) 2,120 9.0 -9.7°
Maximum altitude 17:38:30 37° 274° (W) 1,017 7.3 -10.4°
Drops below altitude 10° 17:42:35 10° 342° (NNW) 2,008 8.2 -11.1°
Sets 17:44:53 0° 351° (N) 2,895 8.9 -11.4°
